Miscellaneous Local Product
Issued by NWS North Platte, NE

Home | Current Version | Previous Version | Text Only | Print | Product List | Glossary On
Versions: 1 2 3 4 5 6 7 8 9 10 11 12 13 14 15 16 17 18 19 20 21 22 23 24 25 26 27 28 29 30 31 32 33 34 35 36 37 38 39 40 41 42 43 44 45 46 47 48 49 50
761
AXUS43 KLBF 090610
MISLBF


WESTERN AND NORTH CENTRAL NEBRASKA HOURLY WEATHER ROUNDUP
NATIONAL WEATHER SERVICE NORTH PLATTE NE
1200 AM CST TUE FEB 09 2016

NOTE: "FAIR" INDICATES FEW OR NO CLOUDS BELOW 12,000 FEET WITH NO
SIGNIFICANT WEATHER AND/OR OBSTRUCTIONS TO VISIBILITY.

NOTE: STATIONS NOT REPORTING VARIABLES SUCH AS SKY/WEATHER OR
PRESSURE ARE PROVIDED BY THE NEBRASKA DEPARTMENT OF
ROADS...RAWS...AND APRS NETWORKS...AND ARE NOT UNDER
NATIONAL WEATHER SERVICE QUALITY CONTROL.

...OBSERVATIONS IN AND NEAR THE EASTERN PANHANDLE OF NEBRASKA...

CITY           SKY/WX    TMP DP  RH WIND       PRES   REMARKS
PINE RIDGE     CLOUDY    31  20  63 CALM      30.22F
CHADRON        MOCLDY    37  28  70 NW10      30.22F WCI  30
ALLIANCE       PTCLDY    36  27  69 NW18      30.19F WCI  26
SIDNEY         CLEAR     32  25  75 NW14      30.24F WCI  22
CRESCENT LAKE    N/A     31  26  82 NW7         N/A  WCI  24
BIG SPRINGS      N/A     20  17  89 CALM        N/A
$$

...OBSERVATIONS IN NORTH CENTRAL NEBRASKA...

CITY           SKY/WX    TMP DP  RH WIND       PRES   REMARKS
VALENTINE      CLOUDY    31  17  56 NW13      30.19F WCI  21
THEDFORD       CLOUDY    35  17  49 N18G24    30.19S WCI  24
AINSWORTH      CLOUDY    32  16  52 NW15      30.17F WCI  21
O`NEILL        CLEAR     28  19  67 N13G20    30.15F WCI  18
ORD            CLEAR     26  17  68 NW12      30.15S WCI  16
BROKEN BOW     MOCLDY    29  17  61 NW16      30.16F WCI  17
VALENTINE NWR    N/A     32  15  49 NW14G21     N/A  WCI  22
BUTTE            N/A     26  19  74 N16         N/A  WCI  14
HALSEY           N/A     33  16  49 NW9         N/A  WCI  25
CHAMBERS         N/A     27  16  63 N6          N/A  WCI  21
EWING            N/A     25  18  73 N9          N/A  WCI  16
$$

...OBSERVATIONS IN SOUTHWEST NEBRASKA AND FAR NORTHEAST COLORADO...

CITY           SKY/WX    TMP DP  RH WIND       PRES   REMARKS
WRAY           FAIR      36  29  74 W16G22    30.25S WCI  27
HOLYOKE        MOCLDY    37  28  70 NW14      30.24R WCI  29
IMPERIAL       CLOUDY    31  24  75 NW7       30.24S WCI  24
OGALLALA       CLOUDY    25  20  82 W7        30.23F WCI  17
NORTH PLATTE   CLOUDY    28  19  69 NW8       30.20F WCI  20
MCCOOK         CLOUDY    31  21  66 W13       30.23F WCI  21
LEXINGTON      CLEAR     24  18  75 W12       30.19S WCI  13
PAXTON           N/A     31  23  72 W3          N/A
STAPLETON        N/A     33  18  55 N3          N/A
GOTHENBURG       N/A     31  19  59 NW6         N/A  WCI  25
CALLAWAY         N/A     31  19  61 NW9         N/A  WCI  23
$$

...OBSERVATIONS IN CENTRAL LINCOLN COUNTY AREA...

CITY           SKY/WX    TMP DP  RH WIND       PRES   REMARKS
N.P. AIRPORT   CLOUDY    28  19  69 NW8       30.20F WCI  20
N.P. DOWNTOWN    N/A     31  21  66 CALM        N/A
N.P. SOUTHEAST   N/A     31  20  62 CALM        N/A
N.P. HILLCREST   N/A     30  20  67 NW9         N/A  WCI  22
$$

...SOME OBSERVATIONS FROM AROUND THE REGION...

CITY           SKY/WX    TMP DP  RH WIND       PRES   REMARKS
DENVER         CLOUDY    29  20  69 S12       30.30F WCI  19
LARAMIE        CLOUDY    26  16  65 CALM      30.35F
CHEYENNE       CLEAR     37  20  50 NW21G31   30.29F WCI  26
SCOTTSBLUFF    CLEAR     31  26  82 NW9       30.26S WCI  23
RAPID CITY     CLOUDY    32  19  58 N3        30.22F
BISMARCK       CLOUDY    25  14  63 N8        30.27F WCI  16
PIERRE         PTCLDY    25  18  74 N13       30.24R WCI  14
WINNER         MOCLDY    28  19  69 NW8       30.21R WCI  20
SIOUX FALLS    CLEAR     14   6  70 N26G40    30.12R WCI  -6
OMAHA          CLEAR     23  15  71 N15       30.08F WCI  10
GRAND ISLAND   CLEAR     20  12  71 W10       30.16S WCI   9
KANSAS CITY    PTCLDY    27  18  69 NW14      30.05F WCI  16
WICHITA        PTCLDY    32  19  58 NW13      30.20R WCI  22
OKLAHOMA CITY  PTCLDY    29  15  56 NW6       30.25F WCI  23
LIBERAL        CLEAR     27  16  63 W9        30.29F WCI  17
HAYS           MOCLDY    30  16  55 W9        30.23S WCI  22
GOODLAND       CLOUDY    25  21  85 NW6       30.24F WCI  18
$$




USA.gov is the U.S. government's official web portal to all federal, state and local government web resources and services.